Location: Devore Heights
(34.2372°N, 117.4156°W)
Time: 23:54:03
(UTC+00:00)

Transit 4A - Pass Details

Date: 17 September 2024
Orbit: 864 x 978 km, 66.8° (Epoch: 13 October)

Event Time Altitude Azimuth Distance (km) Brightness Sun altitude
Rises 10:07:12 0° 215° (SW) 3,434 - -40.6°
Reaches altitude 10° 10:09:41 10° 218° (SW) 2,505 - -40.2°
Maximum altitude 10:15:23 61° 298° (WNW) 992 - -39.3°
Exits shadow 10:19:01 24° 12° (NNE) 1,778 9.7 -38.7°
Drops below altitude 10° 10:21:16 10° 19° (NNE) 2,573 10.7 -38.3°
Sets 10:23:51 0° 23° (NNE) 3,533 11.6 -37.9°
